KC5DAQ-24 Weather Reports


Display with metric or nautical units.
time (UTC)temp
F
wind
direction
speed
MPH
gust
MPH
rain 1hr
in
rain 24hr
in
rain mn
in
humidity
%
barometer
mb
20260502170503 70 0 3.0 7.0 0.01 0.88 0.11 58 1019.2
20260502170404 70 0 3.0 7.0 0.01 0.88 0.11 58 1019.3
20260502170303 70 0 3.0 9.0 0.02 0.88 0.11 58 1019.2
20260502170203 70 0 3.0 9.0 0.02 0.88 0.11 58 1019.3
20260502170104 70 0 3.0 9.0 0.02 0.88 0.11 58 1019.3
20260502164303 0 0 3.0 3.0 0.01 0.87 0.09 1019.0
20260502164203 0 0 3.0 3.0 0.01 0.87 0.09 1019.1
20260502164104 0 0 3.0 3.0 0.01 0.88 0.09 1019.1
20260502164004 0 0 3.0 3.0 0.02 0.88 0.09 1019.2
20260502163904 0 0 3.0 3.0 0.02 0.88 0.09 1019.1
20260502163804 0 0 3.0 3.0 0.02 0.88 0.09 1019.1
20260502163704 0 0 3.0 3.0 0.02 0.88 0.09 1019.1
20260502163603 0 0.0 0.0 0.02 0.88 0.09 1019.1
20260502163505 0 0.0 0.0 0.02 0.88 0.09 1019.1
20260502163402 0 0.0 0.0 0.02 0.91 0.09 1019.0
20260502163303 0 0.0 0.0 0.02 0.91 0.09 1019.1
20260502163203 0 0.0 0.0 0.02 0.91 0.09 1019.2
20260502163103 0 0.0 0.0 0.02 0.91 0.09 1019.1
20260502163004 0 0.0 0.0 0.02 0.91 0.09 1019.1
20260502162903 0 0.0 0.0 0.02 0.91 0.09 1019.1
20260502162803 0 0.0 0.0 0.02 0.91 0.09 1019.2
20260502162703 0 0.0 0.0 0.02 0.91 0.09 1019.1
20260502162603 0 0.0 0.0 0.02 0.91 0.09 1019.1
20260502162503 0 0.0 0.0 0.02 0.91 0.09 1019.2
20260502162404 0 0.0 0.0 0.02 0.91 0.09 1019.2
20260502162304 0 0.0 0.0 0.02 0.91 0.09 1019.2
20260502162203 0 0.0 0.0 0.02 0.91 0.09 1019.1
20260502162103 68 0 3.0 4.0 0.02 0.91 0.09 63 1019.1
20260502162003 68 0 3.0 4.0 0.02 0.91 0.09 63 1019.1
20260502161903 68 0 3.0 4.0 0.02 0.91 0.09 63 1019.1
20260502161803 68 0 3.0 4.0 0.02 0.91 0.09 63 1019.1
20260502161703 68 0 3.0 4.0 0.02 0.91 0.09 63 1019.1
20260502161604 68 0 3.0 4.0 0.02 0.91 0.09 63 1019.2
20260502161503 68 0 3.0 4.0 0.02 0.91 0.09 63 1019.1
20260502161404 68 0 3.0 4.0 0.02 0.91 0.09 63 1019.2
20260502161303 68 0 3.0 4.0 0.02 0.91 0.09 63 1019.2
20260502161204 68 0 3.0 4.0 0.02 0.91 0.09 63 1019.2
20260502161105 68 0 2.0 4.0 0.02 0.91 0.09 63 1019.1
20260502161004 68 0 2.0 4.0 0.02 0.91 0.09 64 1019.1
20260502160903 68 0 2.0 4.0 0.02 0.91 0.09 64 1019.0
20260502160803 68 0 2.0 4.0 0.02 0.92 0.09 64 1019.0
20260502160632 68 0 2.0 4.0 0.02 0.92 0.09 64 1019.0
20260502160531 68 0 2.0 3.0 0.02 0.92 0.09 64 1019.1
20260502160430 68 0 1.0 3.0 0.02 0.92 0.09 65 1019.1
20260502160332 0 0.0 0.0 0.01 0.91 0.09 1019.1
20260502160231 0 0.0 0.0 0.01 0.91 0.09 1019.0
20260502160130 0 0.0 0.0 0.01 0.91 0.09 1019.0
20260502152321 65 0 5.0 11.0 0.01 0.91 0.09 73 1018.9
20260502152221 65 0 5.0 11.0 0.01 0.91 0.09 73 1019.0
20260502152119 65 0 5.0 11.0 0.01 0.91 0.09 73 1018.9
20260502152019 65 0 5.0 11.0 0.01 0.91 0.09 73 1019.0
20260502151919 65 0 5.0 11.0 0.01 0.91 0.09 73 1019.0
20260502151819 65 0 5.0 11.0 0.01 0.91 0.09 73 1018.9
20260502151719 65 0 5.0 11.0 0.01 0.91 0.09 73 1019.0
20260502151619 65 0 5.0 11.0 0.01 0.91 0.09 73 1019.0
20260502151520 65 0 4.0 9.0 0.01 0.91 0.09 73 1019.0
20260502151419 65 0 4.0 7.0 0.01 0.91 0.09 74 1019.0
20260502151320 65 0 4.0 7.0 0.01 0.91 0.09 73 1018.9
20260502151219 65 0 2.0 7.0 0.01 0.91 0.09 73 1019.0
20260502151119 65 0 2.0 7.0 0.01 0.91 0.09 74 1019.1
20260502151020 64 0 3.0 7.0 0.01 0.91 0.09 74 1019.0
20260502150917 64 0 3.0 7.0 0.01 0.92 0.09 74 1019.1
20260502150817 64 0 6.0 7.0 0.01 0.92 0.09 75 1019.1
20260502150718 64 0 5.0 7.0 0.01 0.92 0.09 75 1019.0
20260502150617 64 0 3.0 7.0 0.01 0.92 0.09 75 1019.1
20260502150517 64 0 3.0 7.0 0.01 0.92 0.09 75 1019.1
20260502150417 64 0 3.0 7.0 0.01 0.92 0.09 75 1019.0
20260502150317 64 0 3.0 7.0 0.01 0.92 0.09 75 1019.0
20260502150217 64 0 3.0 7.0 0.01 0.92 0.09 75 1019.0
20260502150117 64 0 3.0 7.0 0.01 0.92 0.09 75 1019.0
20260502130654 57 0 1.0 3.0 0.01 0.94 0.06 88 1017.8
20260502130553 56 0 0.0 3.0 0.01 0.94 0.06 88 1017.7
20260502130455 56 0 1.0 3.0 0.01 0.94 0.06 89 1017.7
20260502130355 56 0 1.0 3.0 0.01 0.94 0.06 89 1017.8
20260502130253 56 0 1.0 5.0 0.01 0.94 0.06 89 1017.7
20260502130155 56 0 1.0 5.0 0.01 0.94 0.06 89 1017.7
20260502123750 55 0 0.0 2.0 0.02 0.95 0.06 90 1017.5
20260502123649 55 0 0.0 2.0 0.02 0.95 0.06 90 1017.4
20260502123549 55 0 0.0 2.0 0.02 0.95 0.06 90 1017.4
20260502123448 55 0 0.0 2.0 0.02 0.95 0.06 90 1017.4
20260502123349 55 0 1.0 2.0 0.02 0.95 0.06 90 1017.4
20260502123249 55 0 1.0 1.0 0.02 0.95 0.05 91 1017.3
20260502123149 0 0.0 0.0 0.01 0.94 0.05 1017.3
20260502123050 0 0.0 0.0 0.01 0.94 0.05 1017.3
20260502122948 0 0.0 0.0 0.01 0.94 0.05 1017.3
20260502122848 0 0.0 0.0 0.01 0.94 0.05 1017.3
20260502122748 0 0.0 0.0 0.01 0.94 0.05 1017.3
20260502122648 0 0.0 0.0 0.01 0.94 0.05 1017.3
20260502122547 0 0.0 0.0 0.01 0.94 0.05 1017.2
20260502122445 0 0.0 0.0 0.01 0.94 0.05 1017.2
20260502122346 0 0.0 0.0 0.01 0.94 0.05 1017.3
20260502122246 0 0.0 0.0 0.01 0.94 0.05 1017.2
20260502122145 0 0.0 0.0 0.01 0.94 0.05 1017.1
20260502122046 0 0.0 0.0 0.01 0.94 0.05 1017.2
20260502121944 0 0.0 0.0 0.01 0.94 0.05 1017.1
20260502121844 54 0 0.0 0.0 0.01 0.94 0.05 91 1017.1
20260502121745 54 0 0.0 1.0 0.01 0.94 0.05 91 1017.1
20260502121644 54 0 0.0 2.0 0.01 0.94 0.05 91 1017.0
20260502121545 54 0 0.0 5.0 0.01 0.94 0.05 91 1017.0
20260502121442 54 0 0.0 5.0 0.01 0.94 0.05 91 1017.1
20260502121342 54 0 0.0 5.0 0.01 0.94 0.05 91 1017.0
20260502121242 54 0 0.0 5.0 0.01 0.94 0.05 91 1017.0
20260502121142 54 0 0.0 5.0 0.01 0.94 0.05 91 1016.9
20260502121042 54 0 0.0 5.0 0.01 0.94 0.05 91 1017.0
20260502120941 54 0 0.0 5.0 0.01 0.94 0.05 91 1017.0
20260502120842 54 0 0.0 5.0 0.01 0.94 0.05 90 1017.0
20260502120740 54 0 1.0 5.0 0.01 0.94 0.05 90 1017.0
20260502120641 54 0 1.0 5.0 0.01 0.94 0.05 91 1017.1
20260502120542 54 0 0.0 2.0 0.01 0.94 0.05 91 1017.0
20260502120442 54 0 0.0 2.0 0.01 0.94 0.05 90 1017.1
20260502120341 54 0 0.0 2.0 0.01 0.94 0.05 91 1017.1
20260502120242 54 0 0.0 3.0 0.01 0.94 0.05 90 1017.1
20260502120143 53 0 1.0 3.0 0.01 0.94 0.06 90 1017.2
20260502115932 53 0 1.0 3.0 0.01 0.94 0.06 90 1017.1
20260502115833 53 0 1.0 3.0 0.01 0.94 0.06 90 1017.1
20260502115732 53 0 1.0 3.0 0.01 0.94 0.06 90 1017.1
20260502115632 53 0 1.0 3.0 0.01 0.94 0.06 90 1017.0
20260502115532 53 0 1.0 3.0 0.01 0.94 0.06 90 1017.0
20260502115433 54 0 1.0 3.0 0.01 0.94 0.06 90 1017.0
20260502115330 53 0 1.0 3.0 0.01 0.94 0.06 90 1016.9
20260502115232 53 0 0.0 2.0 0.01 0.94 0.06 90 1016.9
20260502115131 54 0 0.0 0.0 0.01 0.94 0.06 90 1016.9
20260502115033 54 0 0.0 0.0 0.01 0.94 0.06 90 1017.0
20260502114910 54 0 0.0 0.0 0.01 0.95 0.06 90 1016.9
20260502114808 54 0 0.0 0.0 0.01 0.95 0.05 90 1017.0
20260502114705 54 0 0.0 0.0 0.00 0.94 0.05 90 1017.1
20260502114604 0 0.0 0.0 0.00 0.94 0.05 1017.0
20260502114504 0 0.0 0.0 0.00 0.94 0.05 1017.1
20260502114403 0 0.0 0.0 0.00 0.94 0.05 1017.0
20260502114303 0 0.0 0.0 0.00 0.94 0.05 1017.0
20260502114204 0 0.0 0.0 0.00 0.94 0.05 1017.0
20260502114103 0 0.0 0.0 0.01 0.94 0.05 1017.0
20260502114004 0 0.0 0.0 0.01 0.94 0.05 1017.0
20260502113904 0 0.0 0.0 0.01 0.94 0.05 1017.0
20260502113802 54 0 0.0 1.0 0.01 0.94 0.05 90 1017.0
20260502113703 54 0 0.0 1.0 0.01 0.94 0.05 90 1016.9
20260502113602 54 0 0.0 1.0 0.01 0.94 0.05 90 1016.9
20260502113504 54 0 0.0 1.0 0.01 0.96 0.05 90 1016.9
20260502113403 54 0 0.0 1.0 0.01 0.96 0.05 90 1016.9
20260502113303 54 0 0.0 1.0 0.01 0.96 0.05 90 1016.9
20260502113203 54 0 0.0 1.0 0.01 0.96 0.05 90 1016.9
20260502113103 54 0 0.0 1.0 0.01 0.96 0.05 90 1016.8
20260502113004 54 0 0.0 1.0 0.01 0.96 0.05 90 1016.8
20260502112903 54 0 0.0 1.0 0.01 0.96 0.05 90 1016.8
20260502112803 54 0 0.0 0.0 0.01 0.96 0.05 90 1016.8
20260502112703 54 0 0.0 1.0 0.01 0.96 0.05 90 1016.8
20260502112604 54 0 0.0 1.0 0.01 0.96 0.05 90 1016.7
20260502112504 54 0 0.0 2.0 0.01 0.96 0.05 90 1016.6
20260502112404 54 0 0.0 2.0 0.01 0.96 0.05 90 1016.7
20260502112306 54 0 0.0 2.0 0.01 0.96 0.05 90 1016.7
20260502112203 54 0 0.0 3.0 0.01 0.96 0.05 90 1016.6
20260502112103 54 0 0.0 3.0 0.01 0.96 0.05 90 1016.7
20260502112004 54 0 0.0 3.0 0.01 0.96 0.05 90 1016.6
20260502111903 54 0 0.0 3.0 0.01 0.96 0.05 90 1016.6
20260502111746 54 0 0.0 3.0 0.01 0.96 0.05 90 1016.6
20260502111646 54 0 1.0 3.0 0.01 0.96 0.05 90 1016.6
20260502111544 54 0 1.0 3.0 0.01 0.96 0.05 90 1016.5
20260502111445 54 0 1.0 3.0 0.01 0.96 0.05 90 1016.5
20260502111334 54 0 1.0 3.0 0.01 0.96 0.05 90 1016.5
20260502111231 54 0 2.0 5.0 0.01 0.96 0.05 90 1016.5
20260502111131 54 0 1.0 5.0 0.01 0.96 0.05 90 1016.5
20260502111032 54 0 1.0 5.0 0.01 0.96 0.05 90 1016.5
20260502110931 54 0 1.0 5.0 0.01 0.96 0.05 90 1016.4
20260502110831 54 0 1.0 5.0 0.01 0.96 0.05 90 1016.5
20260502110731 54 0 1.0 5.0 0.01 0.96 0.05 90 1016.4
20260502110631 54 0 1.0 5.0 0.01 0.96 0.05 90 1016.4
20260502110530 54 0 1.0 5.0 0.01 0.96 0.05 90 1016.4
20260502110429 54 0 1.0 5.0 0.01 0.96 0.05 90 1016.4
20260502110330 54 0 1.0 5.0 0.01 0.96 0.05 90 1016.4
20260502110229 54 0 1.0 5.0 0.01 0.96 0.05 90 1016.4
20260502110130 54 0 0.0 5.0 0.01 0.96 0.05 90 1016.3
20260502110029 54 0 0.0 5.0 0.01 0.96 0.05 90 1016.3
20260502105930 54 0 0.0 5.0 0.01 0.96 0.04 90 1016.3
20260502105829 54 0 0.0 0.0 0.01 0.96 0.04 89 1016.3
20260502105730 54 0 0.0 0.0 0.01 0.96 0.04 89 1016.3
20260502105631 54 0 0.0 0.0 0.01 0.96 0.04 89 1016.3
20260502105531 54 0 0.0 0.0 0.01 0.96 0.04 89 1016.2
20260502105428 54 0 0.0 0.0 0.01 0.96 0.04 89 1016.2
20260502105329 54 0 0.0 0.0 0.01 0.96 0.04 89 1016.3
20260502105228 54 0 0.0 0.0 0.02 0.96 0.04 89 1016.2
20260502105128 54 0 0.0 0.0 0.02 0.96 0.04 89 1016.2
20260502105028 54 0 0.0 0.0 0.02 0.97 0.04 89 1016.2
20260502104928 54 0 0.0 0.0 0.02 0.97 0.04 89 1016.2
20260502104829 54 0 0.0 0.0 0.02 0.97 0.04 89 1016.1
20260502104727 54 0 0.0 0.0 0.02 0.97 0.04 89 1016.1
20260502104627 54 0 0.0 0.0 0.02 0.97 0.04 89 1016.2
20260502104528 54 0 0.0 0.0 0.02 0.97 0.03 89 1016.2
20260502104428 54 0 0.0 0.0 0.02 0.97 0.03 89 1016.1
20260502104328 54 0 0.0 0.0 0.02 1.05 0.03 89 1016.1
20260502104228 54 0 0.0 0.0 0.02 1.05 0.03 89 1016.2
20260502104129 0 0.0 0.0 0.01 1.04 0.03 1016.2
20260502104028 0 0.0 0.0 0.01 1.04 0.03 1016.1
20260502103926 0 0.0 0.0 0.01 1.04 0.03 1016.1
20260502103826 0 0 1.0 0.0 0.01 1.04 0.03 1016.2
20260502103726 54 0 1.0 6.0 0.01 1.04 0.03 89 1016.1
20260502103626 54 0 1.0 6.0 0.01 1.04 0.03 89 1016.1
20260502103527 54 0 1.0 6.0 0.01 1.04 0.03 89 1016.0
20260502103425 54 0 1.0 6.0 0.01 1.04 0.03 89 1016.1
20260502103325 54 0 1.0 6.0 0.01 1.04 0.03 89 1016.1
20260502103225 54 0 1.0 6.0 0.01 1.04 0.03 89 1016.1
20260502103124 54 0 1.0 6.0 0.01 1.04 0.03 89 1016.0
20260502103025 54 0 1.0 6.0 0.01 1.04 0.03 89 1016.0
20260502102924 54 0 1.0 6.0 0.01 1.04 0.03 89 1016.0
20260502102823 54 0 1.0 6.0 0.01 1.04 0.03 89 1016.0
20260502102724 54 0 0.0 4.0 0.01 1.04 0.03 89 1016.0
20260502102623 54 0 1.0 4.0 0.01 1.04 0.03 89 1015.9
20260502102523 54 0 0.0 3.0 0.01 1.04 0.03 89 1016.0
20260502102423 54 0 0.0 0.0 0.01 1.04 0.03 89 1016.0
20260502102326 55 0 0.0 0.0 0.01 1.04 0.03 89 1015.9
20260502102224 55 0 0.0 0.0 0.01 1.04 0.03 89 1016.0
20260502102122 55 0 0.0 0.0 0.01 1.04 0.03 89 1016.0
20260502102023 55 0 0.0 0.0 0.01 1.04 0.03 89 1016.0
20260502101923 55 0 0.0 3.0 0.01 1.04 0.03 89 1016.0
20260502101822 55 0 0.0 3.0 0.01 1.04 0.03 89 1016.0
20260502101722 55 0 0.0 3.0 0.01 1.04 0.03 89 1016.0
20260502101622 55 0 0.0 3.0 0.01 1.04 0.03 89 1016.0
20260502101522 55 0 0.0 3.0 0.01 1.04 0.03 89 1015.9
20260502101422 55 0 0.0 3.0 0.01 1.04 0.03 89 1015.9
20260502101322 54 0 0.0 3.0 0.01 1.04 0.03 89 1015.9
20260502101223 55 0 0.0 3.0 0.01 1.04 0.03 89 1015.8
20260502101121 54 0 0.0 3.0 0.01 1.04 0.03 89 1015.9
20260502101022 55 0 1.0 3.0 0.01 1.04 0.03 89 1015.8
20260502100923 55 0 0.0 0.0 0.01 1.04 0.03 88 1015.8
20260502100823 0 0.0 0.0 0.01 1.04 0.04 1015.8
20260502100722 0 0.0 0.0 0.01 1.04 0.04 1015.7
20260502100620 0 0.0 0.0 0.01 1.04 0.04 1015.7
20260502100521 55 0 0.0 2.0 0.01 1.04 0.04 88 1015.6
20260502100421 55 0 0.0 2.0 0.01 1.04 0.04 88 1015.6
20260502100321 55 0 0.0 2.0 0.01 1.04 0.04 88 1015.5
20260502100220 55 0 0.0 2.0 0.01 1.04 0.04 88 1015.5
20260502100118 55 0 0.0 2.0 0.01 1.04 0.04 88 1015.5
20260502091503 56 0 2.0 6.0 0.01 1.09 0.02 87 1015.0
20260502091403 56 0 2.0 6.0 0.01 1.09 0.02 87 1014.9
20260502091303 56 0 2.0 6.0 0.01 1.09 0.02 87 1014.9
20260502091202 56 0 2.0 6.0 0.01 1.09 0.02 87 1014.9
20260502091103 56 0 3.0 6.0 0.01 1.09 0.02 87 1014.9
20260502091003 56 0 3.0 6.0 0.01 1.17 0.02 87 1014.9
20260502090904 56 0 3.0 6.0 0.01 1.17 0.02 87 1014.9
20260502090805 56 0 2.0 6.0 0.01 1.17 0.03 87 1014.9
20260502090703 56 0 3.0 6.0 0.01 1.17 0.03 87 1014.8
20260502090603 56 0 3.0 6.0 0.01 1.17 0.03 87 1014.8
20260502090503 56 0 3.0 6.0 0.01 1.17 0.03 87 1014.8
20260502090403 56 0 3.0 6.0 0.01 1.17 0.03 87 1014.7
20260502090303 56 0 3.0 6.0 0.01 1.17 0.03 87 1014.8
20260502090203 56 0 3.0 6.0 0.01 1.17 0.03 87 1014.7
20260502090104 56 0 3.0 6.0 0.01 1.17 0.03 87 1014.6
20260502071451 0 0.0 0.0 0.01 1.27 0.02 1014.5
20260502071351 0 0.0 0.0 0.01 1.27 0.02 1014.6
20260502071251 56 0 3.0 7.0 0.01 1.27 0.02 89 1014.6
20260502071151 56 0 3.0 7.0 0.01 1.27 0.02 89 1014.5
20260502071051 56 0 3.0 7.0 0.01 1.27 0.02 89 1014.5
20260502070950 56 0 3.0 7.0 0.01 1.27 0.02 89 1014.5
20260502070849 56 0 3.0 7.0 0.01 1.27 0.02 89 1014.6
20260502070749 56 0 3.0 7.0 0.01 1.27 0.02 89 1014.5
20260502070650 56 0 3.0 7.0 0.01 1.27 0.02 89 1014.6
20260502070549 56 0 3.0 7.0 0.01 1.27 0.02 89 1014.6
20260502070449 56 0 3.0 7.0 0.01 1.27 0.02 89 1014.6
20260502070348 56 0 3.0 7.0 0.01 1.27 0.02 89 1014.6
20260502070248 56 0 4.0 6.0 0.01 1.27 0.02 90 1014.6
20260502070149 56 0 3.0 6.0 0.01 1.27 0.02 90 1014.7
20260502070048 56 0 2.0 6.0 0.01 1.27 0.02 90 1014.7
20260502065948 56 0 2.0 6.0 0.01 1.27 0.01 90 1014.7
20260502065849 56 0 4.0 6.0 0.01 1.27 0.01 89 1014.7
20260502065749 56 0 5.0 5.0 0.01 1.27 0.01 90 1014.7
20260502065649 0 0.0 0.0 0.01 1.27 0.01 1014.7
20260502065549 0 0.0 0.0 0.01 1.27 0.01 1014.7
20260502065448 0 0.0 0.0 0.01 1.27 0.01 1014.8
20260502065348 0 0.0 0.0 0.01 1.27 0.01 1014.7
20260502065248 0 0.0 0.0 0.01 1.27 0.01 1014.7
20260502065147 0 0.0 0.0 0.01 1.27 0.01 1014.7
20260502065049 0 0.0 0.0 0.01 1.27 0.01 1014.6
20260502064945 0 0.0 0.0 0.01 1.27 0.01 1014.7
20260502064845 56 0 4.0 6.0 0.01 1.27 0.01 90 1014.6
20260502064746 56 0 4.0 9.0 0.01 1.27 0.01 90 1014.6
20260502064645 56 0 4.0 9.0 0.01 1.27 0.01 90 1014.6
20260502064545 56 0 4.0 9.0 0.01 1.27 0.01 90 1014.6
20260502064444 56 0 4.0 9.0 0.01 1.27 0.01 90 1014.6
20260502064343 56 0 4.0 9.0 0.01 1.27 0.01 90 1014.5
20260502064244 56 0 4.0 9.0 0.01 1.27 0.01 90 1014.5
20260502064143 56 0 4.0 9.0 0.01 1.27 0.01 90 1014.5
20260502064044 56 0 4.0 9.0 0.01 1.27 0.01 90 1014.5
20260502063942 56 0 4.0 9.0 0.01 1.27 0.01 90 1014.5
20260502063842 56 0 4.0 9.0 0.01 1.27 0.01 90 1014.5
20260502063743 56 0 2.0 6.0 0.01 1.27 0.01 90 1014.5
20260502063643 56 0 2.0 6.0 0.01 1.27 0.01 90 1014.5
20260502063543 56 0 3.0 6.0 0.01 1.27 0.01 90 1014.4
20260502063444 56 0 4.0 5.0 0.01 1.27 0.01 90 1014.4
20260502063343 56 0 4.0 10.0 0.01 1.27 0.01 90 1014.4
20260502063243 56 0 5.0 10.0 0.01 1.27 0.01 90 1014.3
20260502063144 56 0 5.0 10.0 0.01 1.27 0.01 90 1014.3
20260502063044 56 0 5.0 10.0 0.01 1.27 0.01 90 1014.3
20260502062942 56 0 5.0 10.0 0.01 1.27 0.01 90 1014.3
20260502062841 56 0 5.0 10.0 0.01 1.27 0.01 90 1014.3
20260502062742 56 0 5.0 10.0 0.01 1.27 0.01 90 1014.3
20260502062641 56 0 5.0 10.0 0.01 1.27 0.01 90 1014.3
20260502062542 56 0 5.0 10.0 0.01 1.27 0.01 90 1014.3
20260502062441 56 0 5.0 10.0 0.01 1.27 0.01 90 1014.4
20260502062341 56 0 5.0 9.0 0.01 1.27 0.01 90 1014.4
20260502062242 56 0 5.0 9.0 0.01 1.27 0.01 90 1014.4
20260502062140 56 0 6.0 9.0 0.01 1.27 0.01 90 1014.4
20260502062041 56 0 4.0 9.0 0.01 1.27 0.01 90 1014.4
20260502061942 56 0 1.0 2.0 0.02 1.27 0.00 90 1014.4
20260502061840 56 0 1.0 2.0 0.02 1.27 0.00 90 1014.4
20260502061743 0 0.0 0.0 0.01 1.26 0.01 1014.4
20260502061641 0 0.0 0.0 0.01 1.26 0.01 1014.4
20260502061531 0 0.0 0.0 0.01 1.26 0.01 1014.3
20260502061431 0 0.0 0.0 0.01 1.26 0.01 1014.3
20260502061332 0 0.0 0.0 0.01 1.26 0.01 1014.3
20260502061232 0 0.0 0.0 0.01 1.26 0.01 1014.3
20260502061133 0 0.0 0.0 0.01 1.26 0.01 1014.3
20260502061032 0 0.0 0.0 0.01 1.26 0.01 1014.1
20260502060932 0 0.0 0.0 0.01 1.50 0.01 1014.2
20260502060833 0 0.0 0.0 0.01 1.50 0.01 1014.2
20260502060731 0 0.0 0.0 0.01 1.50 0.01 1014.1
20260502060632 0 0.0 0.0 0.01 1.50 0.01 1014.2
20260502060532 0 0.0 0.0 0.01 1.50 0.01 1014.1
20260502060432 0 0.0 0.0 0.01 1.50 0.01 1014.2
20260502060332 0 0.0 0.0 0.01 1.50 0.01 1014.1
20260502060232 0 0.0 0.0 0.01 1.50 0.01 1014.2
20260502060132 0 0.0 0.0 0.01 1.50 0.01 1014.2
20260502060032 0 0.0 0.0 0.01 1.50 0.01 1014.1
20260502055932 0 0.0 0.0 0.01 1.50 0.01 1014.2
20260502055833 0 0.0 0.0 0.01 1.50 0.01 1014.1
20260502055732 0 0.0 0.0 0.01 1.50 0.01 1014.1
20260502055633 0 0.0 0.0 0.01 1.50 0.01 1014.1
20260502055532 0 0.0 0.0 0.01 1.50 0.01 1014.2
20260502055432 0 0.0 0.0 0.01 1.50 0.01 1014.1
20260502055332 0 0.0 0.0 0.01 1.50 0.01 1014.1
20260502055232 0 0.0 0.0 0.01 1.50 0.01 1014.1
20260502055131 0 0.0 0.0 0.01 1.50 0.01 1014.2
20260502055032 0 0.0 0.0 0.01 1.50 0.01 1014.2
20260502054931 0 0.0 0.0 0.01 1.50 0.01 1014.2
20260502054830 56 0 6.0 7.0 0.01 1.50 0.01 90 1014.2
20260502054731 56 0 6.0 10.0 0.01 1.50 0.01 90 1014.2
20260502054630 56 0 6.0 10.0 0.01 1.50 0.01 90 1014.2
20260502054531 56 0 6.0 10.0 0.01 1.50 0.01 90 1014.2
20260502054427 56 0 6.0 10.0 0.01 1.50 0.01 90 1014.3
20260502054328 56 0 6.0 10.0 0.01 1.50 0.01 90 1014.3
20260502054228 56 0 6.0 10.0 0.01 1.50 0.01 90 1014.2
20260502054127 56 0 6.0 10.0 0.01 1.50 0.01 90 1014.2
20260502054028 56 0 6.0 10.0 0.01 1.50 0.01 90 1014.2
20260502053924 56 0 6.0 10.0 0.01 1.50 0.01 90 1014.2
20260502053824 56 0 4.0 10.0 0.01 1.50 0.01 91 1014.2
20260502053721 56 0 3.0 10.0 0.01 1.50 0.01 91 1014.2
20260502053621 56 0 5.0 10.0 0.01 1.50 0.01 91 1014.2
20260502053518 56 0 4.0 10.0 0.02 1.50 0.01 91 1014.2
20260502053417 56 0 3.0 5.0 0.02 1.50 0.01 91 1014.2
20260502053316 56 0 3.0 6.0 0.02 1.50 0.01 91 1014.2
20260502053216 56 0 5.0 7.0 0.02 1.50 0.01 91 1014.2
20260502053103 56 0 5.0 7.0 0.02 1.50 0.01 91 1014.2
20260502053004 56 0 5.0 10.0 0.02 1.50 0.01 91 1014.2
20260502052903 56 0 5.0 10.0 0.02 1.50 0.01 91 1014.2
20260502052803 56 0 5.0 10.0 0.02 1.50 0.01 91 1014.2
20260502052703 56 0 5.0 10.0 0.02 1.50 0.01 91 1014.2
20260502052604 56 0 5.0 10.0 0.02 1.50 0.01 91 1014.2
20260502052503 56 0 5.0 10.0 0.02 1.50 0.01 91 1014.3
20260502052403 56 0 5.0 10.0 0.02 1.50 0.01 91 1014.2
20260502052306 56 0 5.0 10.0 0.02 1.50 0.01 91 1014.2
20260502052202 56 0 6.0 10.0 0.02 1.50 0.01 91 1014.2
20260502052102 56 0 6.0 10.0 0.02 1.50 0.00 91 1014.2
20260502052003 57 0 5.0 6.0 0.01 1.50 0.00 91 1014.3
20260502051903 57 0 4.0 9.0 0.01 1.50 0.00 91 1014.2
20260502051803 57 0 4.0 9.0 0.01 1.50 0.00 91 1014.2
20260502051703 57 0 4.0 9.0 0.01 1.50 0.00 91 1014.2
20260502051604 57 0 4.0 9.0 0.01 1.50 0.00 91 1014.3
20260502051503 57 0 4.0 9.0 0.01 1.50 0.00 91 1014.2
20260502051403 57 0 4.0 9.0 0.01 1.50 0.00 91 1014.1
20260502051304 57 0 4.0 9.0 0.01 1.50 0.00 91 1014.2
20260502051203 57 0 4.0 9.0 0.01 1.50 0.00 91 1014.0
20260502051102 57 0 4.0 9.0 0.01 1.50 0.00 91 1014.1
20260502051002 57 0 4.0 9.0 0.01 1.50 0.00 91 1014.1
20260502050903 57 0 3.0 5.0 0.01 1.50 0.00 92 1014.1
20260502050803 0 0.0 0.0 0.01 1.50 0.00 1014.1
20260502050703 0 0.0 0.0 0.01 1.50 0.00 1014.1
20260502050603 0 0.0 0.0 0.01 1.50 0.00 1014.1
20260502050504 0 0.0 0.0 0.01 1.50 0.00 1014.1
20260502050404 0 0.0 0.0 0.01 1.50 0.00 1014.0
20260502050303 0 0.0 0.0 0.01 1.50 0.00 1014.2
20260502050132 0 0.0 0.0 0.01 1.50 0.00 1014.1
20260502050023 0 0.0 0.0 0.01 1.50 0.00 1014.2
20260502045923 0 0.0 0.0 0.01 1.50 1.47 1014.1
20260502045820 0 0.0 0.0 0.01 1.50 1.47 1014.1
20260502045720 0 0.0 0.0 0.01 1.50 1.47 1014.1
20260502045620 0 0.0 0.0 0.01 1.50 1.47 1014.1
20260502045521 0 0.0 0.0 0.01 1.50 1.47 1014.2
20260502045420 0 0.0 0.0 0.01 1.50 1.47 1014.3
20260502045318 0 0.0 0.0 0.01 1.50 1.47 1014.3
20260502045220 56 0 3.0 4.0 0.01 1.50 1.47 92 1014.1
20260502045119 56 0 3.0 10.0 0.01 1.50 1.47 92 1014.2
20260502045019 56 0 3.0 10.0 0.02 1.50 1.47 92 1014.2
20260502044918 56 0 3.0 10.0 0.02 1.50 1.47 92 1014.2
20260502044816 56 0 3.0 10.0 0.02 1.50 1.47 92 1014.2
20260502044716 56 0 3.0 10.0 0.02 1.50 1.47 92 1014.3
20260502044616 56 0 3.0 10.0 0.02 1.50 1.47 92 1014.3
20260502044516 56 0 3.0 10.0 0.02 1.50 1.47 92 1014.3
20260502044417 56 0 3.0 10.0 0.02 1.50 1.47 92 1014.3
20260502044317 56 0 3.0 10.0 0.02 1.50 1.47 92 1014.4
20260502044216 57 0 4.0 10.0 0.02 1.50 1.47 92 1014.4
20260502044116 56 0 3.0 7.0 0.02 1.50 1.47 92 1014.5
20260502044016 56 0 2.0 7.0 0.02 1.50 1.47 92 1014.4
20260502043916 56 0 3.0 6.0 0.02 1.50 1.47 92 1014.4
20260502043816 56 0 3.0 6.0 0.02 1.50 1.47 92 1014.4
20260502043715 56 0 4.0 6.0 0.02 1.50 1.47 92 1014.5
20260502043616 56 0 4.0 4.0 0.02 1.50 1.46 93 1014.4
20260502043516 0 0.0 0.0 0.02 1.49 1.49 1014.5
20260502043416 0 0.0 0.0 0.02 1.49 1.49 1014.4
20260502043314 0 0.0 0.0 0.02 1.49 1.49 1014.5
20260502043214 0 0.0 0.0 0.02 1.49 1.49 1014.5
20260502043115 0 0.0 0.0 0.02 1.49 1.49 1014.5
20260502043014 0 0.0 0.0 0.02 1.49 1.49 1014.4
20260502042915 0 0.0 0.0 0.02 1.49 1.49 1014.4
20260502042813 0 0.0 0.0 0.02 1.49 1.49 1014.3
20260502042712 0 0.0 0.0 0.02 1.49 1.49 1014.3
20260502042613 0 0.0 0.0 0.02 1.49 1.49 1014.3
20260502042513 0 0.0 0.0 0.02 1.49 1.49 1014.3
20260502042413 0 0.0 0.0 0.02 1.49 1.49 1014.3
20260502042306 0 0.0 0.0 0.02 1.49 1.49 1014.3
20260502042203 0 0.0 0.0 0.02 1.49 1.49 1014.3
20260502042103 0 0.0 0.0 0.02 1.49 1.49 1014.2
20260502042003 0 0.0 0.0 0.02 1.49 1.49 1014.3
20260502041903 0 0.0 0.0 0.02 1.49 1.49 1014.2
20260502041803 0 0.0 0.0 0.02 1.49 1.49 1014.2
20260502041703 0 0.0 0.0 0.02 1.49 1.49 1014.2
20260502041604 0 0.0 0.0 0.02 1.49 1.49 1014.3
20260502041504 0 0.0 0.0 0.02 1.49 1.49 1014.3
20260502041403 0 0.0 0.0 0.02 1.49 1.49 1014.2
20260502041303 0 0.0 0.0 0.02 1.49 1.49 1014.2
20260502041203 0 0.0 0.0 0.02 1.49 1.49 1014.3
20260502041103 0 0.0 0.0 0.02 1.49 1.49 1014.2
20260502041002 0 0.0 0.0 0.02 1.49 1.49 1014.2
20260502040903 0 0.0 0.0 0.02 1.49 1.49 1014.1
20260502040803 0 0.0 0.0 0.02 1.49 1.49 1014.3
20260502040703 0 0.0 0.0 0.02 1.49 1.49 1014.2
20260502040604 0 0.0 0.0 0.02 1.49 1.49 1014.3
20260502040503 0 0.0 0.0 0.02 1.49 1.49 1014.3
20260502040404 0 0.0 0.0 0.02 1.49 1.49 1014.2
20260502040302 0 0.0 0.0 0.02 1.49 1.49 1014.2
20260502040204 57 0 2.0 6.0 0.02 1.49 1.49 93 1014.2
20260502040005 57 0 2.0 6.0 0.02 1.49 1.49 93 1014.2
20260502035904 57 0 2.0 6.0 0.03 1.49 1.49 93 1014.2
20260502035802 57 0 2.0 6.0 0.03 1.49 1.49 93 1014.3
20260502035701 57 0 2.0 6.0 0.03 1.49 1.49 93 1014.3
20260502035601 57 0 2.0 7.0 0.03 1.49 1.49 93 1014.3
20260502035502 57 0 2.0 7.0 0.03 1.49 1.49 93 1014.3
20260502035401 57 0 2.0 7.0 0.03 1.49 1.49 93 1014.3
20260502035301 57 0 2.0 7.0 0.03 1.49 1.49 93 1014.3
20260502035200 57 0 2.0 7.0 0.03 1.49 1.49 93 1014.2
20260502035100 57 0 2.0 7.0 0.03 1.49 1.48 93 1014.2
20260502035001 57 0 2.0 7.0 0.02 1.48 1.48 93 1014.1
20260502034902 57 0 1.0 7.0 0.02 1.48 1.48 93 1014.0
20260502034801 57 0 2.0 7.0 0.02 1.48 1.48 93 1014.0
20260502034702 57 0 3.0 7.0 0.02 1.48 1.48 93 1014.0
20260502034602 57 0 1.0 1.0 0.02 1.48 1.47 93 1014.0
20260502034502 0 0.0 0.0 0.02 1.47 1.47 1013.9
20260502034402 0 0.0 0.0 0.02 1.47 1.47 1013.9
20260502034300 0 0.0 0.0 0.02 1.47 1.47 1013.9
20260502034200 0 0.0 0.0 0.02 1.47 1.47 1013.9
20260502034059 0 0.0 0.0 0.02 1.47 1.47 1013.9
20260502034000 0 0.0 0.0 0.02 1.47 1.47 1013.9
20260502033900 0 0.0 0.0 0.02 1.47 1.47 1013.9
20260502033757 0 0.0 0.0 0.02 1.47 1.47 1013.9
20260502033657 0 0.0 0.0 0.02 1.47 1.47 1013.9
20260502033558 0 0.0 0.0 0.02 1.47 1.47 1013.9
20260502033458 0 0.0 0.0 0.02 1.47 1.47 1014.0
20260502033358 0 0.0 0.0 0.02 1.47 1.47 1014.0
20260502033256 0 0.0 0.0 0.02 1.47 1.47 1014.0
20260502033157 57 0 4.0 4.0 0.02 1.47 1.47 93 1013.9
20260502033056 57 0 4.0 7.0 0.02 1.47 1.47 93 1013.9
20260502032958 57 0 4.0 7.0 0.02 1.47 1.47 93 1013.9
20260502032856 57 0 4.0 7.0 0.02 1.47 1.47 93 1013.8
20260502032754 57 0 4.0 7.0 0.02 1.47 1.47 93 1013.8
20260502032654 57 0 4.0 11.0 0.07 1.47 1.47 93 1013.8
20260502032554 57 0 4.0 11.0 0.07 1.47 1.47 93 1013.7
20260502032454 57 0 4.0 11.0 0.07 1.47 1.47 93 1013.7
20260502032354 57 0 4.0 11.0 0.07 1.47 1.47 93 1013.6
20260502032254 57 0 4.0 11.0 0.07 1.47 1.47 93 1013.6
20260502032154 57 0 3.0 11.0 0.07 1.47 1.47 93 1013.5
20260502032053 57 0 2.0 11.0 0.07 1.47 1.47 93 1013.4
20260502031955 57 0 3.0 11.0 0.07 1.47 1.47 93 1013.5
20260502031853 57 0 4.0 11.0 0.07 1.47 1.47 93 1013.4
20260502031753 57 0 5.0 11.0 0.07 1.47 1.47 93 1013.4
20260502031654 0 0.0 0.0 0.07 1.47 1.46 1013.4
20260502031554 0 0.0 0.0 0.07 1.47 1.46 1013.4
20260502031452 0 0.0 0.0 0.07 1.47 1.46 1013.5
20260502031352 57 0 6.0 9.0 0.07 1.47 1.46 93 1013.4
20260502031253 57 0 6.0 9.0 0.07 1.47 1.46 93 1013.3
20260502031152 57 0 6.0 9.0 0.07 1.47 1.46 93 1013.1
20260502031052 57 0 6.0 9.0 0.07 1.47 1.46 93 1013.1
20260502030950 57 0 6.0 10.0 0.07 1.47 1.46 93 1013.0
20260502030851 57 0 6.0 10.0 0.07 1.47 1.46 93 1013.0
20260502030750 57 0 6.0 10.0 0.07 1.47 1.46 93 1012.8
20260502030651 57 0 6.0 10.0 0.07 1.47 1.46 93 1012.8
20260502030551 57 0 6.0 10.0 0.07 1.47 1.46 93 1012.8
20260502030449 57 0 6.0 10.0 0.07 1.47 1.46 93 1012.8
20260502030350 57 0 4.0 10.0 0.06 1.46 1.46 93 1012.7
20260502030251 57 0 4.0 10.0 0.06 1.46 1.46 93 1012.6
20260502030151 57 0 4.0 10.0 0.06 1.46 1.46 93 1012.6
20260502030050 57 0 4.0 10.0 0.06 1.46 1.46 93 1012.5
20260502025949 57 0 6.0 6.0 0.06 1.46 1.43 93 1012.6
20260502025850 0 0.0 0.0 0.06 1.46 1.43 1012.6
20260502025751 0 0.0 0.0 0.06 1.46 1.43 1012.6
20260502025650 0 0.0 0.0 0.06 1.46 1.43 1012.6
20260502025552 0 0.0 0.0 0.06 1.46 1.43 1012.6
20260502025449 0 0.0 0.0 0.06 1.46 1.43 1012.7
20260502025348 0 0.0 0.0 0.06 1.46 1.43 1012.7
20260502025250 0 0.0 0.0 0.06 1.46 1.43 1012.7
20260502025148 0 0.0 0.0 0.06 1.46 1.43 1012.7
20260502025048 0 0.0 0.0 0.06 1.46 1.43 1012.8
20260502024946 0 0.0 0.0 0.06 1.46 1.43 1012.8
20260502024847 0 0.0 0.0 0.06 1.46 1.43 1012.8
20260502024746 0 0.0 0.0 0.06 1.46 1.43 1012.7
20260502024647 0 0.0 0.0 0.06 1.46 1.43 1012.7
20260502024546 0 0.0 0.0 0.06 1.46 1.43 1012.7
20260502024445 0 0.0 0.0 0.06 1.46 1.43 1012.6
20260502024345 57 0 3.0 3.0 0.06 1.46 1.43 93 1012.6
20260502024245 57 0 3.0 5.0 0.06 1.46 1.43 93 1012.5
20260502024145 57 0 3.0 9.0 0.06 1.46 1.43 93 1012.5
20260502024045 57 0 3.0 9.0 0.06 1.46 1.43 93 1012.5
20260502023943 57 0 3.0 9.0 0.06 1.46 1.43 93 1012.5
20260502023844 57 0 3.0 9.0 0.06 1.46 1.43 93 1012.5
20260502023743 57 0 3.0 9.0 0.06 1.46 1.43 93 1012.5
20260502023643 57 0 3.0 9.0 0.06 1.46 1.43 93 1012.6
20260502023543 57 0 3.0 9.0 0.06 1.46 1.43 93 1012.4
20260502023443 57 0 3.0 9.0 0.06 1.46 1.43 93 1012.5
20260502023342 57 0 4.0 9.0 0.06 1.46 1.43 93 1012.4
20260502023242 57 0 3.0 9.0 0.06 1.46 1.43 93 1012.5
20260502023143 57 0 2.0 9.0 0.05 1.45 1.42 93 1012.4
20260502023042 57 0 3.0 9.0 0.05 1.45 1.42 93 1012.5
20260502022944 57 0 5.0 9.0 0.05 1.45 1.42 93 1012.4
20260502022844 57 0 5.0 9.0 0.05 1.45 1.42 93 1012.4
20260502022743 57 0 4.0 6.0 0.05 1.45 1.37 93 1012.4
20260502022643 0 0.0 0.0 0.00 1.40 1.40 1012.3
20260502022542 0 0.0 0.0 0.00 1.40 1.40 1012.3
20260502022441 0 0.0 0.0 0.00 1.40 1.40 1012.3
20260502022342 0 0.0 0.0 0.00 1.40 1.40 1012.4
20260502022241 0 0.0 0.0 0.00 1.40 1.40 1012.5
20260502022142 0 0.0 0.0 0.02 1.40 1.40 1012.5
20260502022040 0 0.0 0.0 0.02 1.40 1.40 1012.6
20260502021939 0 0.0 0.0 0.02 1.40 1.40 1012.7
20260502021839 0 0.0 0.0 0.02 1.40 1.40 1012.7
20260502021739 0 0.0 0.0 0.02 1.40 1.40 1012.7
20260502021639 0 0.0 0.0 0.02 1.40 1.40 1012.7
20260502021540 0 0.0 0.0 0.02 1.40 1.40 1012.7
20260502021439 0 0.0 0.0 0.02 1.40 1.40 1012.6
20260502021337 0 0.0 0.0 0.02 1.40 1.40 1012.7
20260502021237 0 0.0 0.0 0.02 1.40 1.40 1012.5
20260502021138 0 0.0 0.0 0.02 1.40 1.40 1012.5
20260502021037 0 0.0 0.0 0.02 1.40 1.40 1012.5
20260502020935 0 0.0 0.0 0.02 1.40 1.40 1012.4
20260502020834 0 0.0 0.0 0.03 1.40 1.40 1012.4
20260502020734 0 0.0 0.0 0.03 1.40 1.40 1012.3
20260502020634 0 0.0 0.0 0.03 1.40 1.40 1012.2
20260502020534 0 0.0 0.0 0.03 1.40 1.40 1012.2
20260502020431 0 0.0 0.0 0.03 1.40 1.40 1012.2
20260502020332 0 0.0 0.0 0.03 1.40 1.40 1012.3
20260502020233 0 0.0 0.0 0.03 1.40 1.40 1012.3
20260502020104 0 0.0 0.0 0.03 1.40 1.40 1012.3
20260502020004 0 0.0 0.0 0.03 1.40 1.32 1012.3
20260502015903 0 0.0 0.0 0.03 1.40 1.32 1012.3
20260502015803 0 0.0 0.0 0.03 1.40 1.32 1012.3
20260502015703 0 0.0 0.0 0.03 1.40 1.32 1012.3
20260502015603 0 0.0 0.0 0.03 1.40 1.32 1012.4
20260502015504 0 0.0 0.0 0.03 1.40 1.32 1012.3
20260502015403 0 0.0 0.0 0.03 1.40 1.32 1012.5
20260502015305 0 0.0 0.0 0.03 1.40 1.32 1012.4
20260502015203 0 0.0 0.0 0.03 1.40 1.32 1012.5
20260502015103 0 0.0 0.0 0.03 1.40 1.32 1012.4
20260502015004 0 0.0 0.0 0.03 1.40 1.32 1012.3
20260502014903 0 0.0 0.0 0.04 1.40 1.32 1012.3
20260502014803 0 0.0 0.0 0.04 1.40 1.32 1012.2
20260502014703 0 0.0 0.0 0.04 1.40 1.32 1012.1
20260502014603 0 0.0 0.0 0.04 1.40 1.32 1012.1
20260502014504 0 0.0 0.0 0.05 1.40 1.32 1012.0
20260502014403 0 0.0 0.0 0.05 1.40 1.32 1011.9
20260502014304 0 0.0 0.0 0.05 1.40 1.32 1012.0
20260502014203 0 0.0 0.0 0.05 1.40 1.32 1011.9
20260502014103 0 0.0 0.0 0.05 1.40 1.32 1011.9
20260502014003 0 0.0 0.0 0.05 1.40 1.32 1011.8
20260502013903 58 0 3.0 2.0 0.05 1.40 1.32 94 1011.8
20260502013803 58 0 3.0 7.0 0.05 1.40 1.32 94 1011.8
20260502013704 58 0 3.0 7.0 0.05 1.40 1.32 94 1011.7
20260502013604 58 0 3.0 7.0 0.05 1.40 1.32 94 1011.7
20260502013504 58 0 3.0 7.0 0.06 1.40 1.32 94 1011.7
20260502013403 58 0 3.0 7.0 0.06 1.40 1.32 94 1011.7
20260502013303 58 0 3.0 9.0 0.06 1.40 1.32 94 1011.7
20260502013203 58 0 3.0 12.0 0.06 1.40 1.32 94 1011.6
20260502013103 58 0 3.0 12.0 0.06 1.40 1.32 94 1011.5
20260502013004 58 0 3.0 12.0 0.06 1.40 1.32 94 1011.5
20260502012903 58 0 3.0 12.0 0.09 1.40 1.32 94 1011.5
20260502012802 59 0 3.0 12.0 0.09 1.40 1.32 93 1011.5
20260502012703 59 0 3.0 12.0 0.09 1.40 1.32 94 1011.4
20260502012603 59 0 3.0 12.0 0.09 1.40 1.32 93 1011.4
20260502012504 59 0 3.0 12.0 0.09 1.40 1.32 93 1011.4
20260502012402 59 0 4.0 12.0 0.09 1.40 1.32 94 1011.3
20260502012306 59 0 3.0 12.0 0.09 1.40 1.31 94 1011.4
20260502012203 0 0 2.0 2.0 0.07 1.39 1.29 1011.4
20260502012103 0 0.0 0.0 0.07 1.39 1.29 1011.4
20260502012004 0 0.0 0.0 0.07 1.39 1.29 1011.3
20260502011903 0 0.0 0.0 0.07 1.39 1.29 1011.4
20260502011732 59 0 2.0 3.0 0.07 1.39 1.29 93 1011.3
20260502011631 59 0 2.0 3.0 0.07 1.39 1.29 93 1011.3
20260502011532 59 0 2.0 3.0 0.07 1.39 1.29 93 1011.2
20260502011432 59 0 2.0 3.0 0.07 1.39 1.29 93 1011.2
20260502011332 59 0 2.0 3.0 0.07 1.39 1.29 93 1011.3
20260502011232 59 0 2.0 3.0 0.07 1.39 1.29 93 1011.3
20260502011131 59 0 2.0 3.0 0.07 1.39 1.29 93 1011.4
20260502011032 59 0 2.0 3.0 0.07 1.39 1.29 93 1011.4
20260502010932 59 0 2.0 3.0 0.07 1.39 1.29 93 1011.5
20260502010832 0 0.0 0.0 0.06 1.37 1.37 1011.6
20260502010732 0 0.0 0.0 0.06 1.37 1.37 1011.6
20260502010632 0 0.0 0.0 0.06 1.37 1.37 1011.8
20260502010533 0 0.0 0.0 0.08 1.37 1.37 1011.9
20260502010432 0 0.0 0.0 0.08 1.37 1.37 1011.8
20260502010333 0 0.0 0.0 0.08 1.37 1.37 1011.7
20260502010232 0 0.0 0.0 0.08 1.37 1.37 1011.6
20260502010132 59 0 2.0 1.0 0.08 1.37 1.37 94 1011.6
20260502010018 59 0 2.0 6.0 0.08 1.37 1.30 94 1011.6
20260502005916 59 0 2.0 6.0 0.08 1.37 1.30 94 1011.6
20260502005815 59 0 2.0 6.0 0.08 1.37 1.30 94 1011.5
20260502005714 59 0 2.0 6.0 0.08 1.37 1.30 94 1011.5
20260502005614 59 0 2.0 6.0 0.08 1.37 1.30 94 1011.5
20260502005514 59 0 2.0 6.0 0.08 1.37 1.30 94 1011.3
20260502005413 59 0 2.0 6.0 0.08 1.37 1.30 94 1011.3
20260502005313 59 0 2.0 6.0 0.08 1.37 1.30 94 1011.1
20260502005213 59 0 2.0 6.0 0.08 1.37 1.30 94 1011.0
20260502005106 59 0 2.0 6.0 0.08 1.37 1.30 94 1010.9
20260502005004 59 0 1.0 6.0 0.08 1.37 1.29 93 1010.8
20260502004902 59 0 2.0 6.0 0.07 1.36 1.29 93 1010.7
20260502004802 59 0 2.0 6.0 0.07 1.36 1.29 93 1010.6
20260502004703 59 0 2.0 5.0 0.07 1.36 1.29 94 1010.5
20260502004603 59 0 2.0 6.0 0.07 1.36 1.28 93 1010.4
20260502004503 59 0 2.0 6.0 0.07 1.35 1.28 94 1010.4
20260502004403 59 0 2.0 6.0 0.07 1.35 1.28 94 1010.3
20260502004303 59 0 2.0 6.0 0.07 1.35 1.28 94 1010.2
20260502004203 59 0 2.0 6.0 0.07 1.35 1.28 94 1010.3
20260502004103 59 0 2.0 6.0 0.07 1.35 1.28 94 1010.2
20260502004005 59 0 2.0 6.0 0.07 1.35 1.28 94 1010.2
20260502003903 59 0 2.0 6.0 0.11 1.35 1.28 94 1010.2
20260502003803 59 0 2.0 6.0 0.11 1.35 1.28 94 1010.2
20260502003702 59 0 2.0 6.0 0.11 1.35 1.28 94 1010.2
20260502003603 59 0 2.0 4.0 0.11 1.35 1.28 93 1010.2
20260502003504 59 0 2.0 4.0 0.10 1.35 1.28 93 1010.2
20260502003403 59 0 2.0 4.0 0.10 1.35 1.28 94 1010.2
20260502003304 59 0 2.0 4.0 0.10 1.35 1.28 94 1010.2
20260502003204 59 0 2.0 4.0 0.10 1.35 1.28 94 1010.1
20260502003102 59 0 2.0 4.0 0.10 1.35 1.28 94 1010.1
20260502003004 59 0 2.0 3.0 0.10 1.35 1.28 94 1010.1
20260502002903 0 0.0 0.0 0.07 1.31 1.24 1010.0
20260502002803 0 0.0 0.0 0.07 1.31 1.24 1010.0
20260502002703 0 0.0 0.0 0.07 1.31 1.24 1010.1
20260502002604 0 0.0 0.0 0.07 1.31 1.24 1010.1
20260502002503 0 0.0 0.0 0.07 1.31 1.24 1010.2
20260502002403 0 0.0 0.0 0.07 1.31 1.24 1010.3
20260502002305 0 0.0 0.0 0.07 1.31 1.24 1010.3
20260502002202 0 0.0 0.0 0.07 1.31 1.24 1010.4
20260502002103 0 0.0 0.0 0.07 1.31 1.24 1010.5
20260502002003 0 0.0 0.0 0.07 1.31 1.24 1010.4
20260502001903 0 0.0 0.0 0.07 1.31 1.24 1010.4
20260502001802 0 0.0 0.0 0.07 1.31 1.24 1010.4
20260502001703 0 0.0 0.0 0.07 1.31 1.24 1010.4
20260502001603 60 0 4.0 4.0 0.07 1.31 1.24 93 1010.5
20260502001504 60 0 4.0 9.0 0.07 1.31 1.24 93 1010.5
20260502001403 60 0 4.0 9.0 0.07 1.31 1.24 93 1010.5
20260502001303 60 0 4.0 9.0 0.07 1.31 1.24 93 1010.4
20260502001204 60 0 4.0 9.0 0.07 1.31 1.24 93 1010.5
20260502001103 60 0 4.0 9.0 0.08 1.31 1.24 93 1010.4
20260502001003 60 0 4.0 9.0 0.08 1.31 1.24 93 1010.3
20260502000903 60 0 4.0 9.0 0.09 1.31 1.24 93 1010.2
20260502000803 60 0 4.0 9.0 0.09 1.31 1.24 93 1010.1
20260502000703 60 0 4.0 9.0 0.09 1.31 1.24 93 1010.1
20260502000602 60 0 6.0 9.0 0.09 1.31 1.22 93 1010.2
20260502000504 0 0.0 0.0 0.07 1.29 1.29 1010.3
20260502000403 0 0.0 0.0 0.07 1.29 1.29 1010.3
20260502000303 0 0.0 0.0 0.07 1.29 1.29 1010.2
20260502000203 0 0.0 0.0 0.07 1.29 1.29 1010.3
20260502000002 0 0.0 0.0 0.07 1.29 1.18 1010.4
20260501235902 0 0.0 0.0 0.07 1.29 1.18 1010.6
20260501235800 0 0.0 0.0 0.07 1.29 1.18 1010.6
20260501235700 0 0 4.0 4.0 0.07 1.29 1.18 1010.7
20260501235600 60 0 4.0 10.0 0.07 1.29 1.18 93 1010.6
20260501235500 60 0 4.0 10.0 0.08 1.29 1.18 93 1010.6
20260501235400 60 0 4.0 10.0 0.08 1.29 1.18 93 1010.6
20260501235259 60 0 4.0 10.0 0.08 1.29 1.18 93 1010.6
20260501235158 60 0 4.0 10.0 0.08 1.29 1.18 93 1010.6
20260501235058 60 0 4.0 11.0 0.08 1.29 1.18 93 1010.5
20260501234958 60 0 4.0 11.0 0.09 1.29 1.18 93 1010.5
20260501234858 60 0 4.0 11.0 0.09 1.29 1.18 93 1010.4
20260501234758 60 0 4.0 11.0 0.09 1.29 1.18 93 1010.3
20260501234657 60 0 4.0 11.0 0.09 1.29 1.18 93 1010.2
20260501234559 60 0 4.0 11.0 0.09 1.29 1.17 93 1010.1
20260501234458 60 0 4.0 11.0 0.09 1.28 1.17 93 1010.0
20260501234357 60 0 3.0 11.0 0.09 1.28 1.17 93 1009.8
20260501234257 60 0 4.0 11.0 0.09 1.28 1.17 93 1009.6
20260501234156 60 0 6.0 11.0 0.09 1.28 1.17 93 1009.4
20260501234058 60 0 5.0 11.0 0.09 1.28 1.17 93 1009.2
20260501233956 60 0 3.0 4.0 0.09 1.28 1.13 93 1009.1
20260501233858 0 0.0 0.0 0.06 1.24 1.13 1009.1
20260501233758 0 0.0 0.0 0.06 1.24 1.13 1008.9
20260501233656 0 0.0 0.0 0.06 1.24 1.13 1009.1
20260501233556 0 0.0 0.0 0.07 1.24 1.13 1009.1
20260501233456 0 0.0 0.0 0.07 1.24 1.13 1009.1
20260501233356 0 0.0 0.0 0.07 1.24 1.13 1009.1
20260501233256 0 0.0 0.0 0.07 1.24 1.13 1009.1
20260501233154 0 0.0 0.0 0.07 1.24 1.13 1009.1
20260501233055 0 0.0 0.0 0.07 1.24 1.13 1009.3
20260501232954 0 0.0 0.0 0.07 1.24 1.13 1009.3
20260501232854 0 0.0 0.0 0.07 1.24 1.13 1009.4
20260501232755 0 0.0 0.0 0.07 1.24 1.13 1009.4
20260501232653 0 0.0 0.0 0.08 1.24 1.13 1009.4
20260501232552 60 0 5.0 9.0 0.08 1.24 1.13 93 1009.4
20260501232453 60 0 5.0 9.0 0.08 1.24 1.13 93 1009.3
20260501232353 60 0 5.0 9.0 0.08 1.24 1.13 93 1009.3
20260501232252 60 0 5.0 9.0 0.08 1.24 1.13 93 1009.5
20260501232151 60 0 5.0 10.0 0.08 1.24 1.13 93 1009.6
20260501232050 60 0 5.0 11.0 0.13 1.24 1.13 93 1009.9
20260501231951 60 0 5.0 11.0 0.13 1.24 1.13 93 1010.0
20260501231851 60 0 5.0 11.0 0.13 1.24 1.13 93 1010.1
20260501231751 60 0 5.0 11.0 0.13 1.24 1.13 93 1010.1
20260501231649 60 0 5.0 11.0 0.13 1.24 1.13 93 1010.0
20260501231551 60 0 4.0 11.0 0.13 1.24 1.13 93 1010.0
20260501231450 60 0 5.0 11.0 0.13 1.24 1.13 93 1010.0
20260501231351 60 0 5.0 11.0 0.13 1.24 1.13 93 1010.0
20260501231250 60 0 4.0 11.0 0.13 1.24 1.13 93 1010.0
20260501231150 60 0 4.0 11.0 0.13 1.24 1.13 93 1009.8
20260501231049 60 0 4.0 7.0 0.13 1.24 1.13 93 1009.8
20260501230951 60 0 4.0 7.0 0.13 1.24 1.11 93 1009.8
20260501230850 0 0.0 0.0 0.11 1.22 1.22 1009.8
20260501230752 0 0.0 0.0 0.11 1.22 1.22 1009.8
20260501230648 0 0.0 0.0 0.11 1.22 1.22 1009.7
20260501230549 60 0 6.0 10.0 0.11 1.22 1.22 93 1009.6
20260501230448 60 0 6.0 10.0 0.11 1.22 1.22 93 1009.6
20260501230333 60 0 6.0 10.0 0.11 1.22 1.22 93 1009.5
20260501230231 60 0 6.0 10.0 0.11 1.22 1.22 93 1009.5
20260501230105 60 0 6.0 10.0 0.11 1.22 1.22 93 1009.4
20260501230004 60 0 6.0 10.0 0.11 1.22 1.12 93 1009.5
20260501225903 60 0 6.0 10.0 0.11 1.22 1.12 93 1009.5
20260501225803 60 0 6.0 10.0 0.11 1.22 1.12 93 1009.5
20260501225703 60 0 6.0 10.0 0.11 1.22 1.12 93 1009.5
20260501225603 60 0 4.0 10.0 0.11 1.22 1.11 94 1009.5
20260501225503 60 0 4.0 10.0 0.10 1.21 1.11 94 1009.5
20260501225402 60 0 5.0 10.0 0.10 1.21 1.11 94 1009.6
20260501225305 60 0 5.0 10.0 0.10 1.21 1.11 94 1009.5
20260501225203 60 0 6.0 10.0 0.10 1.21 1.11 94 1009.3
20260501225105 60 0 6.0 10.0 0.10 1.21 1.10 94 1009.3
20260501225002 60 0 4.0 12.0 0.09 1.20 1.09 94 1009.2
20260501224903 61 0 9.0 14.0 0.09 1.20 1.09 94 1009.0
20260501224803 61 0 9.0 14.0 0.09 1.20 1.09 94 1008.9
20260501224703 61 0 9.0 14.0 0.09 1.20 1.09 94 1008.9
20260501224603 61 0 9.0 14.0 0.09 1.20 1.09 94 1008.9
20260501224505 61 0 9.0 14.0 0.09 1.20 1.09 94 1009.0
20260501224403 61 0 9.0 14.0 0.09 1.20 1.09 94 1009.0
20260501224304 61 0 9.0 14.0 0.09 1.20 1.09 94 1009.1
20260501224203 61 0 9.0 14.0 0.13 1.20 1.09 94 1009.1
20260501224104 61 0 9.0 14.0 0.13 1.20 1.09 94 1009.1
20260501224004 61 0 7.0 14.0 0.13 1.20 1.09 94 1009.1
20260501223903 61 0 6.0 13.0 0.12 1.19 1.09 94 1009.1
20260501223802 61 0 6.0 13.0 0.12 1.19 1.09 94 1009.1
20260501223703 61 0 9.0 13.0 0.12 1.19 1.07 94 1009.1
20260501223603 61 0 6.0 9.0 0.10 1.17 1.06 94 1009.1
20260501223504 61 0 6.0 9.0 0.10 1.17 1.06 94 1009.0
20260501223403 61 0 6.0 9.0 0.10 1.17 1.06 94 1008.9
20260501223303 61 0 6.0 9.0 0.10 1.17 1.06 94 1009.0
20260501223204 61 0 6.0 10.0 0.10 1.17 1.06 94 1009.0
20260501223042 61 0 6.0 10.0 0.10 1.17 1.06 94 1008.9
20260501222943 61 0 6.0 10.0 0.10 1.17 1.06 94 1008.9
20260501222842 61 0 6.0 10.0 0.10 1.17 1.06 94 1008.9
20260501222743 61 0 6.0 10.0 0.09 1.17 1.06 94 1009.0
20260501222642 61 0 5.0 10.0 0.09 1.17 1.06 94 1009.0
20260501222543 61 0 5.0 10.0 0.09 1.17 1.06 94 1008.9
20260501222443 61 0 5.0 10.0 0.09 1.17 1.06 94 1009.0
20260501222341 61 0 6.0 10.0 0.09 1.17 1.06 94 1008.9
20260501222242 61 0 6.0 10.0 0.09 1.17 1.06 94 1008.9
20260501222143 61 0 6.0 9.0 0.10 1.17 1.01 94 1008.9
20260501222042 0 0.0 0.0 0.05 1.11 1.11 1008.9
20260501221942 0 0.0 0.0 0.05 1.11 1.11 1009.0
20260501221841 0 0.0 0.0 0.05 1.11 1.11 1009.0
20260501221740 61 0 8.0 9.0 0.10 1.11 1.11 94 1009.0
20260501221641 61 0 8.0 9.0 0.10 1.11 1.11 94 1009.2
20260501221540 61 0 8.0 9.0 0.10 1.11 1.11 94 1009.3
20260501221441 61 0 8.0 9.0 0.10 1.11 1.11 94 1009.4
20260501221339 61 0 8.0 9.0 0.10 1.11 1.11 94 1009.5
20260501221238 61 0 8.0 9.0 0.10 1.11 1.11 94 1009.5
20260501221139 61 0 8.0 9.0 0.10 1.11 1.11 94 1009.4
20260501221039 61 0 8.0 9.0 0.10 1.11 1.11 94 1009.4
20260501220938 61 0 8.0 9.0 0.10 1.11 1.11 94 1009.3
20260501220839 61 0 8.0 9.0 0.10 1.11 1.11 94 1009.2
20260501220739 0 0.0 0.0 0.10 1.11 1.11 1009.2
20260501220638 0 0.0 0.0 0.10 1.11 1.11 1009.2
20260501220535 0 0.0 0.0 0.10 1.11 1.11 1009.3
20260501220436 0 0.0 0.0 0.10 1.11 1.11 1009.5
20260501220336 0 0.0 0.0 0.10 1.11 1.11 1009.7
20260501220236 0 0.0 0.0 0.10 1.11 1.11 1009.7
20260501220136 0 0.0 0.0 0.10 1.11 1.11 1009.7
20260501220032 0 0.0 0.0 0.10 1.11 1.11 1009.6
20260501215932 61 0 4.0 5.0 0.10 1.11 1.10 94 1009.5
20260501215831 61 0 4.0 10.0 0.10 1.11 1.10 94 1009.5
20260501215732 61 0 4.0 10.0 0.10 1.11 1.10 94 1009.5
20260501215632 61 0 4.0 10.0 0.10 1.11 1.10 94 1009.3
20260501215533 61 0 4.0 10.0 0.10 1.11 1.10 94 1009.3
20260501215432 61 0 4.0 10.0 0.10 1.11 1.10 94 1009.3
20260501215331 61 0 4.0 10.0 0.10 1.11 1.10 94 1009.6
20260501215232 61 0 4.0 11.0 0.10 1.11 1.10 94 1009.7
20260501215131 61 0 4.0 11.0 0.10 1.11 1.10 94 1009.8
20260501215033 61 0 4.0 11.0 0.10 1.11 1.10 94 1009.8
20260501214933 61 0 4.0 11.0 0.10 1.11 1.10 94 1009.8
20260501214831 61 0 3.0 11.0 0.10 1.11 1.10 94 1009.7
20260501214732 61 0 4.0 11.0 0.10 1.11 1.10 94 1009.7
20260501214631 61 0 2.0 11.0 0.09 1.10 1.09 94 1009.6
20260501214533 61 0 2.0 11.0 0.09 1.10 1.09 94 1009.5
20260501214434 61 0 4.0 11.0 0.09 1.10 1.09 94 1009.5
20260501214332 61 0 5.0 11.0 0.09 1.10 1.06 94 1009.3
20260501214233 61 0 4.0 6.0 0.09 1.10 1.06 94 1009.2
20260501214132 0 0.0 0.0 0.07 1.07 1.06 1009.2
20260501214031 0 0.0 0.0 0.07 1.07 1.06 1009.2
20260501213930 0 0.0 0.0 0.07 1.07 1.06 1009.4
20260501213831 0 0.0 0.0 0.07 1.07 1.06 1009.4
20260501213731 0 0.0 0.0 0.07 1.07 1.06 1009.5
20260501213631 0 0.0 0.0 0.07 1.07 1.06 1009.6
20260501213529 0 0.0 0.0 0.07 1.07 1.06 1009.6
20260501213429 62 0 1.0 4.0 0.07 1.07 1.06 94 1009.5
20260501213329 62 0 1.0 4.0 0.07 1.07 1.06 94 1009.4
20260501213229 62 0 1.0 4.0 0.07 1.07 1.06 94 1009.4
20260501213129 62 0 1.0 4.0 0.07 1.07 1.06 94 1009.3
20260501213027 62 0 1.0 4.0 0.07 1.07 1.06 94 1009.5
20260501212928 62 0 1.0 4.0 0.07 1.07 1.06 94 1009.5
20260501212827 62 0 1.0 6.0 0.07 1.07 1.06 94 1009.6
20260501212726 62 0 1.0 9.0 0.07 1.07 1.06 94 1009.7
20260501212604 62 0 1.0 9.0 0.07 1.07 1.06 94 1009.9
20260501212503 62 0 1.0 9.0 0.07 1.07 1.06 94 1009.8
20260501212403 62 0 1.0 9.0 0.07 1.07 1.06 94 1009.8
20260501212305 62 0 1.0 9.0 0.07 1.07 1.06 94 1009.6
20260501212203 62 0 2.0 9.0 0.06 1.06 1.06 94 1009.6
20260501212102 62 0 3.0 9.0 0.06 1.06 1.06 94 1009.5
20260501212004 62 0 3.0 9.0 0.06 1.06 1.06 94 1009.4
20260501211901 62 0 4.0 9.0 0.06 1.06 1.06 94 1009.5
20260501211802 0 0 6.0 9.0 0.06 1.06 1.00 1009.6
20260501211703 0 0.0 0.0 0.01 1.01 1.01 1009.5
20260501211603 0 0.0 0.0 0.01 1.01 1.01 1009.5
20260501211504 0 0.0 0.0 0.01 1.01 1.01 1009.4
20260501211403 0 0.0 0.0 0.01 1.01 1.01 1009.3
20260501211303 0 0.0 0.0 0.01 1.01 1.01 1009.2
20260501211206 0 0.0 0.0 0.01 1.01 1.01 1009.1
20260501211103 0 0.0 0.0 0.01 1.01 1.01 1008.9
20260501211003 0 0.0 0.0 0.01 1.01 1.01 1008.9
20260501210903 0 0.0 0.0 0.01 1.01 1.01 1008.8
20260501210803 0 0.0 0.0 0.01 1.01 1.01 1008.7
20260501210703 0 0.0 0.0 0.01 1.01 1.01 1008.7
20260501210604 0 0.0 0.0 0.01 1.01 1.01 1008.5
20260501210503 0 0.0 0.0 0.01 1.01 1.01 1008.4
20260501210332 0 0.0 0.0 0.01 1.01 1.01 1008.2
20260501210232 0 0.0 0.0 0.01 1.01 1.01 1008.1
20260501210132 0 0.0 0.0 0.01 1.01 1.01 1008.0
20260501210033 0 0.0 0.0 0.01 1.01 1.01 1007.9
20260501205931 0 0.0 0.0 0.01 1.01 0.88 1008.0
20260501205819 0 0.0 0.0 0.01 1.01 0.88 1008.1
20260501205719 0 0.0 0.0 0.01 1.01 0.88 1008.0
20260501205619 0 0.0 0.0 0.01 1.01 0.88 1008.0
20260501205517 0 0.0 0.0 0.02 1.01 0.88 1008.1
20260501205416 62 0 6.0 7.0 0.02 1.01 0.88 94 1008.0
20260501205317 62 0 6.0 9.0 0.02 1.01 0.88 94 1008.0
20260501205217 62 0 6.0 9.0 0.02 1.01 0.88 94 1008.0
20260501205117 62 0 6.0 9.0 0.02 1.01 0.88 94 1008.0
20260501205016 62 0 6.0 9.0 0.02 1.01 0.88 94 1008.0
20260501204916 62 0 6.0 9.0 0.02 1.01 0.88 94 1007.9
20260501204815 62 0 6.0 10.0 0.04 1.01 0.88 94 1007.9
20260501204714 62 0 6.0 10.0 0.04 1.01 0.88 94 1007.8
20260501204616 62 0 6.0 10.0 0.04 1.01 0.88 94 1007.6
20260501204515 62 0 6.0 10.0 0.04 1.01 0.88 94 1007.6
20260501204416 62 0 6.0 10.0 0.04 1.01 0.88 94 1007.7
20260501204315 62 0 4.0 10.0 0.04 1.01 0.88 94 1007.9
20260501204216 62 0 3.0 10.0 0.04 1.01 0.87 94 1008.2
20260501204105 62 0 4.0 10.0 0.03 1.00 0.87 94 1008.3
20260501204006 62 0 6.0 10.0 0.03 1.00 0.87 94 1008.3
20260501203905 62 0 8.0 10.0 0.03 1.00 0.87 94 1008.5
20260501203804 0 0.0 0.0 0.04 1.00 0.99 1008.8
20260501203703 0 0.0 0.0 0.04 1.00 0.99 1009.1
20260501203603 0 0.0 0.0 0.04 1.00 0.99 1009.3
20260501203503 0 0.0 0.0 0.04 1.00 0.99 1009.3
20260501203403 0 0.0 0.0 0.05 1.00 0.99 1009.3
20260501203303 0 0.0 0.0 0.13 1.00 0.99 1009.3
20260501203203 0 0.0 0.0 0.13 1.00 0.99 1009.1
20260501203103 0 0.0 0.0 0.13 1.00 0.99 1009.1
20260501203004 0 0.0 0.0 0.13 1.00 0.99 1009.1
20260501202903 0 0.0 0.0 0.13 1.00 0.99 1009.0
20260501202803 0 0.0 0.0 0.13 1.00 0.99 1008.9
20260501202703 0 0.0 0.0 0.13 1.00 0.99 1009.0
20260501202602 0 0.0 0.0 0.13 1.00 0.99 1009.0
20260501202504 0 0.0 0.0 0.13 1.00 0.99 1009.0
20260501202403 0 0.0 0.0 0.13 1.00 0.99 1008.9
20260501202306 0 0.0 0.0 0.13 1.00 0.99 1008.9
20260501202203 0 0.0 0.0 0.13 1.00 0.99 1008.9
20260501202103 0 0.0 0.0 0.13 1.00 0.99 1008.9
20260501202002 0 0.0 0.0 0.13 1.00 0.99 1008.9
20260501201903 0 0.0 0.0 0.13 1.00 0.99 1009.0
20260501201803 0 0.0 0.0 0.13 1.00 0.99 1008.8
20260501201703 0 0.0 0.0 0.13 1.00 0.99 1008.7
20260501201604 0 0.0 0.0 0.13 1.00 0.99 1008.5
20260501201503 0 0.0 0.0 0.13 1.00 0.99 1008.5
20260501201403 0 0.0 0.0 0.13 1.00 0.99 1008.3
20260501201304 0 0.0 0.0 0.13 1.00 0.99 1008.1
20260501201203 0 0.0 0.0 0.13 1.00 0.99 1008.0
20260501201103 0 0.0 0.0 0.13 1.00 0.99 1007.9
20260501201004 0 0.0 0.0 0.13 1.00 0.99 1007.9
20260501200903 0 0.0 0.0 0.13 1.00 0.99 1007.7
20260501200803 0 0.0 0.0 0.13 1.00 0.99 1007.5
20260501200704 0 0.0 0.0 0.13 1.00 0.99 1007.5
20260501200602 0 0.0 0.0 0.13 1.00 0.99 1007.5
20260501200503 62 0 4.0 6.0 0.13 1.00 0.99 94 1007.5
20260501200402 62 0 4.0 6.0 0.13 1.00 0.99 94 1007.4
20260501200303 62 0 4.0 6.0 0.13 1.00 0.99 94 1007.5
20260501200202 62 0 4.0 12.0 0.13 1.00 0.99 94 1007.6
20260501200100 62 0 4.0 12.0 0.13 1.00 0.99 94 1007.8
20260501200000 62 0 4.0 12.0 0.13 1.00 0.90 94 1007.9
20260501195900 62 0 4.0 12.0 0.13 1.00 0.90 94 1008.0
20260501195801 62 0 4.0 12.0 0.13 1.00 0.90 94 1008.0
20260501195700 62 0 4.0 12.0 0.13 1.00 0.90 94 1008.1
20260501195600 62 0 4.0 12.0 0.13 1.00 0.90 94 1008.0
20260501195501 62 0 3.0 12.0 0.12 0.99 0.90 94 1008.1
20260501195400 62 0 5.0 12.0 0.12 0.99 0.90 94 1008.1
20260501195300 62 0 7.0 12.0 0.12 0.99 0.90 94 1008.1
20260501195158 62 0 6.0 11.0 0.12 0.99 0.89 94 1008.0
20260501195100 62 0 5.0 10.0 0.11 0.98 0.89 94 1007.9
20260501194959 63 0 6.0 10.0 0.11 0.98 0.89 94 1007.8
20260501194859 63 0 6.0 10.0 0.11 0.98 0.87 94 1007.7
20260501194800 63 0 2.0 6.0 0.10 0.97 0.87 94 1007.7
20260501194659 63 0 2.0 6.0 0.10 0.97 0.87 94 1007.5
20260501194558 63 0 2.0 6.0 0.10 0.97 0.87 94 1007.5
20260501194458 63 0 2.0 7.0 0.12 0.97 0.87 94 1007.4
20260501194358 63 0 2.0 9.0 0.12 0.97 0.87 94 1007.6
20260501194258 63 0 2.0 9.0 0.12 0.97 0.87 94 1007.7
20260501194158 63 0 2.0 9.0 0.12 0.97 0.87 94 1007.9
20260501194058 63 0 2.0 9.0 0.12 0.97 0.87 94 1008.0
20260501193959 63 0 3.0 9.0 0.12 0.97 0.87 94 1007.8
20260501193858 63 0 3.0 9.0 0.12 0.97 0.87 94 1007.7
20260501193757 63 0 3.0 9.0 0.11 0.96 0.87 94 1007.6
20260501193658 63 0 4.0 9.0 0.11 0.96 0.87 94 1007.5
20260501193557 63 0 6.0 9.0 0.11 0.96 0.87 94 1007.4
20260501193458 63 0 6.0 9.0 0.11 0.96 0.86 94 1007.4
20260501193358 63 0 6.0 7.0 0.17 0.95 0.78 94 1007.5
20260501193257 0 0.0 0.0 0.09 0.87 0.87 1007.7
20260501193158 0 0.0 0.0 0.09 0.87 0.87 1008.0
20260501193056 0 0.0 0.0 0.09 0.87 0.87 1008.2
20260501192957 0 0.0 0.0 0.09 0.87 0.87 1008.3
20260501192857 0 0.0 0.0 0.09 0.87 0.87 1008.2
20260501192757 0 0.0 0.0 0.09 0.87 0.87 1008.0
20260501192657 0 0.0 0.0 0.09 0.87 0.87 1007.7
20260501192555 0 0.0 0.0 0.09 0.87 0.87 1007.6
20260501192454 0 0.0 0.0 0.09 0.87 0.87 1007.5
20260501192354 0 0.0 0.0 0.09 0.87 0.87 1007.5
20260501192255 0 0.0 0.0 0.09 0.87 0.87 1007.5
20260501192154 0 0.0 0.0 0.09 0.87 0.87 1007.6
20260501192053 0 0.0 0.0 0.09 0.87 0.87 1007.8
20260501191952 0 0.0 0.0 0.09 0.87 0.87 1007.9
20260501191853 0 0.0 0.0 0.09 0.87 0.87 1008.1
20260501191752 0 0.0 0.0 0.09 0.87 0.87 1008.3
20260501191653 0 0.0 0.0 0.09 0.87 0.87 1008.4
20260501191551 0 0.0 0.0 0.09 0.87 0.87 1008.4
20260501191451 0 0.0 0.0 0.09 0.87 0.87 1008.4
20260501191351 0 0.0 0.0 0.09 0.87 0.87 1008.3
20260501191251 0 0.0 0.0 0.09 0.87 0.87 1008.2
20260501191151 0 0.0 0.0 0.09 0.87 0.87 1008.0
20260501191049 0 0.0 0.0 0.09 0.87 0.87 1008.0
20260501190948 0 0.0 0.0 0.09 0.87 0.87 1007.9
20260501190849 0 0.0 0.0 0.09 0.87 0.87 1007.8
20260501190748 0 0.0 0.0 0.09 0.87 0.87 1007.8
20260501190649 0 0.0 0.0 0.09 0.87 0.87 1007.7
20260501190547 0 0.0 0.0 0.09 0.87 0.87 1007.7
20260501190448 0 0.0 0.0 0.09 0.87 0.87 1007.6
20260501190347 0 0.0 0.0 0.09 0.87 0.87 1007.6
20260501190248 0 0.0 0.0 0.09 0.87 0.87 1007.4
20260501190147 0 0.0 0.0 0.09 0.87 0.87 1007.2
20260501190045 0 0.0 0.0 0.09 0.87 0.87 1007.0
20260501185945 63 0 3.0 6.0 0.09 0.87 0.82 94 1007.1
20260501185845 63 0 3.0 6.0 0.09 0.87 0.82 94 1007.2
20260501185745 63 0 3.0 7.0 0.09 0.87 0.82 94 1007.5
20260501185645 63 0 3.0 10.0 0.09 0.87 0.82 94 1007.6
20260501185544 63 0 3.0 10.0 0.09 0.87 0.82 94 1007.7
20260501185444 63 0 3.0 10.0 0.09 0.87 0.82 94 1007.7
20260501185343 63 0 3.0 10.0 0.09 0.87 0.82 94 1007.7
20260501185243 63 0 3.0 10.0 0.09 0.87 0.82 94 1007.7
20260501185144 63 0 3.0 10.0 0.09 0.87 0.82 94 1008.0
20260501185043 63 0 3.0 10.0 0.09 0.87 0.82 94 1008.2
20260501184943 62 0 4.0 10.0 0.09 0.87 0.82 94 1008.4
20260501184843 63 0 5.0 10.0 0.09 0.87 0.81 94 1008.4
20260501184743 63 0 3.0 10.0 0.09 0.87 0.81 94 1008.4
20260501184643 63 0 2.0 9.0 0.09 0.87 0.81 94 1008.4
20260501184543 63 0 4.0 9.0 0.07 0.85 0.80 94 1008.4
20260501184443 63 0 5.0 9.0 0.07 0.85 0.80 94 1008.2
20260501184332 63 0 5.0 9.0 0.07 0.85 0.80 94 1007.8
20260501184231 63 0 5.0 9.0 0.07 0.85 0.80 94 1008.3
20260501184132 63 0 5.0 9.0 0.07 0.85 0.80 94 1009.0
20260501184032 63 0 7.0 9.0 0.07 0.85 0.80 94 1009.7
20260501183932 63 0 7.0 9.0 0.07 0.85 0.80 94 1010.0
20260501183832 63 0 7.0 9.0 0.07 0.85 0.80 94 1010.1
20260501183705 63 0 7.0 9.0 0.07 0.85 0.80 94 1010.0
20260501183602 62 0 6.0 9.0 0.07 0.85 0.80 94 1009.7
20260501183502 62 0 5.0 5.0 0.07 0.85 0.72 94 1009.3
20260501183403 62 0 3.0 3.0 0.00 0.78 0.78 94 1008.7
20260501183303 62 0 3.0 3.0 0.00 0.78 0.78 94 1008.2
20260501183203 62 0 3.0 3.0 0.00 0.78 0.78 94 1007.8
20260501183103 62 0 3.0 3.0 0.01 0.78 0.78 94 1007.5
20260501183004 62 0 3.0 3.0 0.01 0.78 0.78 94 1007.2
20260501182903 0 0.0 0.0 0.01 0.78 0.78 1007.1
20260501182803 0 0.0 0.0 0.01 0.78 0.78 1007.0
20260501182703 0 0.0 0.0 0.01 0.78 0.78 1006.9
20260501182604 0 0.0 0.0 0.01 0.78 0.78 1006.9
20260501182504 0 0.0 0.0 0.06 0.78 0.78 1006.9
20260501182403 0 0.0 0.0 0.06 0.78 0.78 1006.9
20260501182306 0 0.0 0.0 0.06 0.78 0.78 1006.9
20260501182203 0 0.0 0.0 0.06 0.78 0.78 1007.0
20260501182103 0 0.0 0.0 0.06 0.78 0.78 1007.1
20260501182003 0 0.0 0.0 0.06 0.78 0.78 1007.2
20260501181904 0 0.0 0.0 0.06 0.78 0.78 1007.2
20260501181803 0 0.0 0.0 0.06 0.78 0.78 1007.2
20260501181703 0 0.0 0.0 0.06 0.78 0.78 1007.1
20260501181603 0 0.0 0.0 0.06 0.78 0.78 1007.1
20260501181503 0 0.0 0.0 0.06 0.78 0.78 1007.0
20260501181404 0 0.0 0.0 0.06 0.78 0.78 1007.1
20260501181303 0 0.0 0.0 0.06 0.78 0.78 1007.2
20260501181203 0 0.0 0.0 0.06 0.78 0.78 1007.4
20260501181104 0 0.0 0.0 0.06 0.78 0.78 1007.9
20260501181004 0 0.0 0.0 0.06 0.78 0.78 1008.5
20260501180903 0 0.0 0.0 0.06 0.78 0.78 1009.0
20260501180803 0 0.0 0.0 0.06 0.78 0.78 1009.3
20260501180703 0 0.0 0.0 0.06 0.78 0.78 1009.5
20260501180603 0 0.0 0.0 0.06 0.78 0.78 1009.5
20260501180505 0 0.0 0.0 0.06 0.78 0.78 1009.3
20260501180404 0 0.0 0.0 0.06 0.78 0.78 1009.1
20260501180303 0 0.0 0.0 0.06 0.78 0.78 1008.9
20260501180204 0 0.0 0.0 0.06 0.78 0.78 1008.7
20260501175932 0 0.0 0.0 0.06 0.78 0.73 1008.3
20260501175835 0 0.0 0.0 0.06 0.78 0.73 1008.2
20260501175731 0 0.0 0.0 0.06 0.78 0.73 1008.0
20260501175631 0 0.0 0.0 0.06 0.78 0.73 1008.0
20260501175531 0 0.0 0.0 0.06 0.78 0.73 1008.1
20260501175431 0 0.0 0.0 0.06 0.78 0.73 1008.1
20260501175331 0 0.0 0.0 0.06 0.78 0.73 1008.2
20260501175228 0 0.0 0.0 0.06 0.78 0.73 1008.2
20260501175129 0 0.0 0.0 0.06 0.78 0.73 1008.2
20260501175028 0 0.0 0.0 0.06 0.78 0.73 1008.0
20260501174928 0 0.0 0.0 0.06 0.78 0.73 1008.0
20260501174829 0 0.0 0.0 0.06 0.78 0.73 1008.0
20260501174727 0 0.0 0.0 0.06 0.78 0.73 1008.1
20260501174626 0 0.0 0.0 0.06 0.78 0.73 1008.2
20260501174527 0 0.0 0.0 0.06 0.78 0.73 1008.4
20260501174426 0 0.0 0.0 0.06 0.78 0.73 1008.6
20260501174327 0 0.0 0.0 0.06 0.78 0.73 1008.9
20260501174226 0 0.0 0.0 0.06 0.78 0.73 1009.2
20260501174124 63 0 3.0 4.0 0.06 0.78 0.73 94 1009.4
20260501174024 63 0 3.0 4.0 0.06 0.78 0.73 94 1009.5
20260501173925 63 0 3.0 4.0 0.06 0.78 0.73 94 1009.6
20260501173825 63 0 3.0 4.0 0.06 0.78 0.73 94 1009.5
20260501173723 63 0 3.0 4.0 0.06 0.78 0.73 94 1009.5
20260501173624 63 0 3.0 7.0 0.06 0.78 0.73 94 1009.3
20260501173523 63 0 3.0 7.0 0.06 0.78 0.73 94 1009.2
20260501173423 63 0 3.0 7.0 0.09 0.78 0.73 94 1009.0
20260501173323 63 0 3.0 7.0 0.09 0.78 0.73 94 1008.9
20260501173223 63 0 3.0 7.0 0.09 0.78 0.73 94 1008.8